TimePST,TemperatureF,Dew PointF,Humidity,Sea Level PressureIn,VisibilityMPH,Wind Direction,Wind SpeedMPH,Gust SpeedMPH,PrecipitationIn,Events,Conditions,WindDirDegrees,DateUTC
12:56 AM,-9999,-9999,N/A,29.88,-9999.0,North,-9999.0,-,N/A,,Unknown,0,2012-12-21 08:56:00
1:56 AM,-9999,-9999,N/A,29.87,-9999.0,North,-9999.0,-,N/A,,Unknown,0,2012-12-21 09:56:00
2:56 AM,-9999,-9999,N/A,29.87,-9999.0,North,-9999.0,-,N/A,,Unknown,0,2012-12-21 10:56:00
3:56 AM,-9999,-9999,N/A,29.85,-9999.0,North,-9999.0,-,N/A,,Unknown,0,2012-12-21 11:56:00
4:56 AM,-9999,-9999,N/A,29.84,-9999.0,North,-9999.0,-,N/A,,Unknown,0,2012-12-21 12:56:00
5:56 AM,-9999,-9999,N/A,29.84,-9999.0,North,-9999.0,-,N/A,,Unknown,0,2012-12-21 13:56:00
6:19 AM,37.4,1.4,22,29.92,10.0,SSE,6.9,-,N/A,,Scattered Clouds,150,2012-12-21 14:19:00
6:56 AM,36.5,2.7,24,29.84,10.0,SSE,5.8,-,N/A,,Mostly Cloudy,150,2012-12-21 14:56:00
7:56 AM,38.3,5.0,25,29.84,10.0,North,3.5,-,N/A,,Overcast,10,2012-12-21 15:56:00
8:56 AM,40.1,4.1,22,29.84,10.0,SSW,3.5,-,N/A,,Overcast,200,2012-12-21 16:56:00
9:35 AM,44.6,3.2,18,29.91,10.0,South,23.0,35.7,N/A,,Overcast,170,2012-12-21 17:35:00
9:56 AM,46.0,3.9,18,29.83,10.0,SSE,10.4,-,N/A,,Overcast,160,2012-12-21 17:56:00
10:56 AM,50.0,3.9,15,29.80,10.0,SE,18.4,28.8,N/A,,Overcast,140,2012-12-21 18:56:00
11:56 AM,50.0,5.0,16,29.78,10.0,South,25.3,34.5,N/A,,Overcast,170,2012-12-21 19:56:00
12:56 PM,50.0,7.0,18,29.78,10.0,South,19.6,24.2,N/A,,Overcast,190,2012-12-21 20:56:00
1:56 PM,50.0,8.1,18,29.78,10.0,South,16.1,20.7,N/A,,Overcast,170,2012-12-21 21:56:00
2:56 PM,51.1,10.0,19,29.80,10.0,SSE,13.8,-,N/A,,Overcast,160,2012-12-21 22:56:00
3:56 PM,48.9,10.0,21,29.81,10.0,SSE,6.9,-,N/A,,Mostly Cloudy,150,2012-12-21 23:56:00
4:56 PM,44.1,12.0,27,29.80,10.0,South,5.8,-,N/A,,Scattered Clouds,190,2012-12-22 00:56:00
5:56 PM,39.9,10.0,29,29.83,10.0,ENE,6.9,-,N/A,,Partly Cloudy,70,2012-12-22 01:56:00
6:56 PM,36.0,9.0,33,29.83,10.0,SE,3.5,-,N/A,,Partly Cloudy,130,2012-12-22 02:56:00
7:56 PM,37.9,10.0,32,29.82,10.0,SE,11.5,-,N/A,,Scattered Clouds,140,2012-12-22 03:56:00
8:56 PM,37.9,12.0,35,29.80,10.0,SSE,16.1,-,N/A,,Clear,160,2012-12-22 04:56:00